• In Deutschland
  • Länderverzeichnis
  • Für 7 Tage
  • Wassertemperatur
  • Satellitenkarten
  • Wetterkarte
  • Widgets
  • user-avatar
    Anmelden

    Stündliche Wetter Mokoa

    Heute, 21 September, Donnerstag

    Zeit Temperatur Niederschläge Wind Luftdruck Luftfeuchtigkeit
    00:00 +28°C° 0 mm 1 m/S 753 mmHg 84%
    01:00 +27°C° 0 mm 1 m/S 753 mmHg 86%
    02:00 +27°C° 0 mm 1 m/S 753 mmHg 87%
    03:00 +27°C° 0 mm 1 m/S 753 mmHg 87%
    04:00 +27°C° 0 mm 1 m/S 752 mmHg 88%
    05:00 +27°C° 0 mm 1 m/S 753 mmHg 84%
    06:00 +28°C° 0 mm 1 m/S 753 mmHg 81%
    07:00 +29°C° 0 mm 1 m/S 753 mmHg 76%
    08:00 +32°C° 0 mm 1 m/S 753 mmHg 66%
    09:00 +35°C° 0 mm 1 m/S 753 mmHg 55%
    10:00 +35°C° 0 mm 0 m/S 753 mmHg 45%
    11:00 +37°C° 0,1 mm 1 m/S 752 mmHg 47%
    12:00 +38°C° 0,1 mm 2 m/S 752 mmHg 48%
    13:00 +38°C° 0,1 mm 2 m/S 751 mmHg 49%
    14:00 +37°C° 0,3 mm 3 m/S 751 mmHg 54%
    15:00 +35°C° 0,3 mm 3 m/S 751 mmHg 58%
    16:00 +34°C° 0,3 mm 4 m/S 750 mmHg 63%
    17:00 +33°C° 0,4 mm 4 m/S 751 mmHg 69%
    18:00 +30°C° 0,4 mm 3 m/S 751 mmHg 74%
    19:00 +29°C° 0,4 mm 3 m/S 751 mmHg 80%
    20:00 +29°C° 0,5 mm 3 m/S 752 mmHg 82%
    21:00 +28°C° 0,5 mm 2 m/S 752 mmHg 83%
    22:00 +28°C° 0,5 mm 2 m/S 752 mmHg 84%
    23:00 +28°C° 0,1 mm 2 m/S 752 mmHg 85%

    Morgen, 22 September, Freitag

    Zeit Temperatur Niederschläge Wind Luftdruck Luftfeuchtigkeit
    00:00 +28°C° 0,1 mm 1 m/S 752 mmHg 85%
    01:00 +28°C° 0,1 mm 1 m/S 752 mmHg 85%
    02:00 +28°C° 0,2 mm 1 m/S 752 mmHg 86%
    03:00 +28°C° 0,2 mm 1 m/S 752 mmHg 86%
    04:00 +28°C° 0,2 mm 1 m/S 752 mmHg 87%
    05:00 +28°C° 0 mm 1 m/S 752 mmHg 85%
    06:00 +28°C° 0 mm 1 m/S 752 mmHg 84%
    07:00 +29°C° 0 mm 1 m/S 752 mmHg 83%
    08:00 +31°C° 0 mm 1 m/S 753 mmHg 73%
    09:00 +33°C° 0 mm 1 m/S 753 mmHg 63%
    10:00 +35°C° 0 mm 1 m/S 753 mmHg 53%
    11:00 +36°C° 0,2 mm 2 m/S 753 mmHg 53%
    12:00 +37°C° 0,2 mm 2 m/S 752 mmHg 52%
    13:00 +37°C° 0,2 mm 2 m/S 751 mmHg 52%
    14:00 +36°C° 0,8 mm 3 m/S 751 mmHg 57%
    15:00 +35°C° 0,8 mm 3 m/S 751 mmHg 62%
    16:00 +34°C° 0,8 mm 3 m/S 750 mmHg 67%
    17:00 +33°C° 1 mm 3 m/S 751 mmHg 71%
    18:00 +31°C° 1 mm 2 m/S 751 mmHg 75%
    19:00 +29°C° 1 mm 2 m/S 752 mmHg 79%
    20:00 +29°C° 0,5 mm 2 m/S 752 mmHg 80%
    21:00 +29°C° 0,5 mm 2 m/S 752 mmHg 81%
    22:00 +29°C° 0,5 mm 2 m/S 753 mmHg 81%
    23:00 +28°C° 0,2 mm 1 m/S 753 mmHg 83%

    übermorgen, 23 September, Samstag

    Zeit Temperatur Niederschläge Wind Luftdruck Luftfeuchtigkeit
    00:00 +28°C° 0,2 mm 1 m/S 752 mmHg 84%
    01:00 +28°C° 0,2 mm 1 m/S 752 mmHg 86%
    02:00 +28°C° 0,4 mm 1 m/S 752 mmHg 87%
    03:00 +27°C° 0,4 mm 1 m/S 752 mmHg 88%
    04:00 +27°C° 0,4 mm 2 m/S 751 mmHg 88%
    05:00 +28°C° 0 mm 2 m/S 752 mmHg 87%
    06:00 +28°C° 0 mm 2 m/S 752 mmHg 86%
    07:00 +29°C° 0 mm 1 m/S 753 mmHg 84%
    08:00 +31°C° 0 mm 1 m/S 753 mmHg 73%
    09:00 +34°C° 0 mm 1 m/S 753 mmHg 62%
    10:00 +35°C° 0 mm 0 m/S 753 mmHg 51%
    11:00 +37°C° 0,3 mm 1 m/S 753 mmHg 52%
    12:00 +38°C° 0,3 mm 2 m/S 752 mmHg 52%
    13:00 +38°C° 0,3 mm 2 m/S 751 mmHg 52%
    14:00 +36°C° 1,6 mm 2 m/S 751 mmHg 58%
    15:00 +35°C° 1,6 mm 3 m/S 751 mmHg 65%
    16:00 +34°C° 1,6 mm 3 m/S 750 mmHg 71%
    17:00 +31°C° 1,1 mm 3 m/S 751 mmHg 75%
    18:00 +30°C° 1,1 mm 3 m/S 751 mmHg 78%
    19:00 +29°C° 1,1 mm 3 m/S 752 mmHg 82%
    20:00 +29°C° 0,1 mm 2 m/S 752 mmHg 83%
    21:00 +29°C° 0,1 mm 2 m/S 753 mmHg 84%
    22:00 +29°C° 0,1 mm 1 m/S 753 mmHg 86%
    23:00 +28°C° 2,2 mm 1 m/S 753 mmHg 87%

    24 September, Sonntag

    Zeit Temperatur Niederschläge Wind Luftdruck Luftfeuchtigkeit
    00:00 +28°C° 2,2 mm 1 m/S 753 mmHg 89%
    01:00 +28°C° 2,2 mm 1 m/S 752 mmHg 90%
    02:00 +28°C° 0,1 mm 1 m/S 752 mmHg 90%
    03:00 +28°C° 0,1 mm 1 m/S 752 mmHg 90%
    04:00 +28°C° 0,1 mm 1 m/S 752 mmHg 90%
    05:00 +28°C° 0,3 mm 1 m/S 752 mmHg 88%
    06:00 +28°C° 0,3 mm 1 m/S 753 mmHg 87%
    07:00 +29°C° 0,3 mm 1 m/S 753 mmHg 86%
    08:00 +31°C° 0 mm 1 m/S 753 mmHg 75%
    09:00 +33°C° 0 mm 1 m/S 753 mmHg 64%
    10:00 +34°C° 0 mm 0 m/S 754 mmHg 53%
    11:00 +36°C° 0 mm 1 m/S 753 mmHg 50%
    12:00 +37°C° 0 mm 1 m/S 752 mmHg 47%
    13:00 +39°C° 0 mm 2 m/S 751 mmHg 44%
    14:00 +37°C° 0,1 mm 2 m/S 751 mmHg 50%
    15:00 +36°C° 0,1 mm 3 m/S 750 mmHg 55%
    16:00 +35°C° 0,1 mm 3 m/S 750 mmHg 61%
    17:00 +34°C° 0,2 mm 3 m/S 750 mmHg 66%
    18:00 +33°C° 0,2 mm 3 m/S 751 mmHg 72%
    19:00 +30°C° 0,2 mm 3 m/S 751 mmHg 77%
    20:00 +30°C° 0,4 mm 3 m/S 752 mmHg 79%
    21:00 +30°C° 0,4 mm 3 m/S 752 mmHg 80%
    22:00 +29°C° 0,4 mm 4 m/S 752 mmHg 81%
    23:00 +29°C° 0 mm 3 m/S 752 mmHg 83%

    25 September, Montag

    Zeit Temperatur Niederschläge Wind Luftdruck Luftfeuchtigkeit
    00:00 +29°C° 0 mm 3 m/S 752 mmHg 84%
    01:00 +29°C° 0 mm 3 m/S 751 mmHg 85%
    02:00 +28°C° 0,1 mm 3 m/S 751 mmHg 86%
    03:00 +28°C° 0,1 mm 3 m/S 751 mmHg 86%
    04:00 +28°C° 0,1 mm 3 m/S 751 mmHg 87%
    05:00 +29°C° 0 mm 4 m/S 751 mmHg 84%
    06:00 +29°C° 0 mm 4 m/S 752 mmHg 82%
    07:00 +30°C° 0 mm 5 m/S 752 mmHg 79%
    08:00 +33°C° 0 mm 5 m/S 752 mmHg 70%
    09:00 +35°C° 0 mm 5 m/S 753 mmHg 60%
    10:00 +37°C° 0 mm 5 m/S 753 mmHg 50%
    11:00 +39°C° 0 mm 5 m/S 752 mmHg 48%
    12:00 +40°C° 0 mm 5 m/S 751 mmHg 45%
    13:00 +40°C° 0 mm 5 m/S 751 mmHg 42%
    14:00 +40°C° 0,3 mm 5 m/S 750 mmHg 45%
    15:00 +38°C° 0,3 mm 4 m/S 750 mmHg 49%
    16:00 +37°C° 0,3 mm 4 m/S 749 mmHg 52%
    17:00 +35°C° 0,5 mm 4 m/S 750 mmHg 59%
    18:00 +33°C° 0,5 mm 4 m/S 750 mmHg 66%
    19:00 +32°C° 0,5 mm 4 m/S 751 mmHg 73%
    20:00 +30°C° 2,3 mm 4 m/S 751 mmHg 78%
    21:00 +29°C° 2,3 mm 4 m/S 752 mmHg 83%
    22:00 +28°C° 2,3 mm 4 m/S 752 mmHg 88%
    23:00 +28°C° 0,4 mm 4 m/S 752 mmHg 88%

    26 September, Dienstag

    Zeit Temperatur Niederschläge Wind Luftdruck Luftfeuchtigkeit
    00:00 +28°C° 0,4 mm 4 m/S 752 mmHg 88%
    01:00 +28°C° 0,4 mm 4 m/S 751 mmHg 88%
    02:00 +28°C° 0,3 mm 4 m/S 751 mmHg 88%
    03:00 +28°C° 0,3 mm 4 m/S 752 mmHg 88%
    04:00 +28°C° 0,3 mm 4 m/S 752 mmHg 88%
    05:00 +28°C° 0 mm 4 m/S 752 mmHg 86%
    06:00 +29°C° 0 mm 4 m/S 752 mmHg 84%
    07:00 +29°C° 0 mm 4 m/S 753 mmHg 82%
    08:00 +32°C° 0 mm 4 m/S 753 mmHg 73%
    09:00 +34°C° 0 mm 5 m/S 753 mmHg 64%
    10:00 +36°C° 0 mm 5 m/S 753 mmHg 55%
    11:00 +37°C° 0,1 mm 5 m/S 752 mmHg 53%
    12:00 +37°C° 0,1 mm 4 m/S 752 mmHg 50%
    13:00 +38°C° 0,1 mm 4 m/S 751 mmHg 48%
    14:00 +37°C° 0,1 mm 4 m/S 751 mmHg 50%
    15:00 +37°C° 0,1 mm 4 m/S 750 mmHg 51%
    16:00 +36°C° 0,1 mm 5 m/S 750 mmHg 53%
    17:00 +35°C° 0,5 mm 4 m/S 750 mmHg 60%
    18:00 +33°C° 0,5 mm 4 m/S 751 mmHg 67%
    19:00 +30°C° 0,5 mm 4 m/S 752 mmHg 75%
    20:00 +30°C° 1,1 mm 4 m/S 752 mmHg 78%
    21:00 +29°C° 1,1 mm 4 m/S 752 mmHg 81%
    22:00 +29°C° 1,1 mm 4 m/S 753 mmHg 84%
    23:00 +28°C° 1,1 mm 4 m/S 752 mmHg 86%
    Mehr zeigen